JES3990 SABE-SAEZ

Flight info

Callsign JES3990
Flight time 0h 11m
Altitude 10000
Route PAL9 PAL DCT ARSOT
Aircraft A320/M-SDE3FGHIRWY/LB1

Departure

Time 2026-05-05 20:56
Airport Aeroparque Jorge Newbery (SABE)

Arrival

Time 2026-05-05 21:08
Airport Ezeiza International Airport - Ministro Pistarini (SAEZ)
Time Latitude Longitude Altitude Speed Heading
2026-05-05 20:32 -34.55803 -58.41245 27 ft 0 kts 39°
2026-05-05 20:46 -34.55813 -58.41254 27 ft 2 kts 39°
2026-05-05 20:46 -34.55826 -58.41268 27 ft 3 kts 27°
2026-05-05 20:46 -34.55837 -58.41273 27 ft 3 kts
2026-05-05 20:46 -34.55851 -58.41272 27 ft 0 kts 338°
2026-05-05 20:50 -34.55845 -58.41275 27 ft 2 kts 334°
2026-05-05 20:50 -34.55827 -58.41296 27 ft 5 kts 310°
2026-05-05 20:50 -34.55802 -58.41341 27 ft 8 kts 303°
2026-05-05 20:50 -34.55766 -58.41408 27 ft 11 kts 303°
2026-05-05 20:51 -34.55730 -58.41488 27 ft 11 kts 298°
2026-05-05 20:51 -34.55754 -58.41572 27 ft 13 kts 208°
2026-05-05 20:51 -34.55781 -58.41638 27 ft 11 kts 290°
2026-05-05 20:51 -34.55754 -58.41705 27 ft 10 kts 295°
2026-05-05 20:52 -34.55715 -58.41790 26 ft 13 kts 302°
2026-05-05 20:52 -34.55660 -58.41887 27 ft 14 kts 304°
2026-05-05 20:52 -34.55624 -58.41952 27 ft 10 kts 304°
2026-05-05 20:52 -34.55580 -58.42029 27 ft 13 kts 307°
2026-05-05 20:53 -34.55528 -58.42114 27 ft 12 kts 306°
2026-05-05 20:53 -34.55470 -58.42208 27 ft 15 kts 306°
2026-05-05 20:53 -34.55401 -58.42321 27 ft 18 kts 307°
2026-05-05 20:53 -34.55367 -58.42396 27 ft 10 kts 285°
2026-05-05 20:54 -34.55367 -58.42484 27 ft 10 kts 244°
2026-05-05 20:54 -34.55404 -58.42516 27 ft 4 kts 170°
2026-05-05 20:54 -34.55412 -58.42499 27 ft 0 kts 120°
2026-05-05 20:55 -34.55412 -58.42498 27 ft 1 kts 120°
2026-05-05 20:55 -34.55479 -58.42374 28 ft 52 kts 125°
2026-05-05 20:55 -34.55821 -58.41760 28 ft 121 kts 124°
2026-05-05 20:56 -34.56377 -58.40746 244 ft 152 kts 123°
2026-05-05 20:56 -34.56928 -58.39708 949 ft 147 kts 121°
2026-05-05 20:56 -34.57213 -58.38520 1524 ft 151 kts 83°
2026-05-05 20:56 -34.56712 -58.37380 1974 ft 163 kts 37°
2026-05-05 20:57 -34.55674 -58.36739 2369 ft 178 kts 13°
2026-05-05 20:57 -34.54421 -58.36884 2774 ft 191 kts 337°
2026-05-05 20:57 -34.53394 -58.37976 3177 ft 211 kts 298°
2026-05-05 20:57 -34.53136 -58.39774 3723 ft 234 kts 262°
2026-05-05 20:58 -34.53668 -58.41788 4074 ft 266 kts 250°
2026-05-05 20:58 -34.54422 -58.43848 4444 ft 267 kts 246°
2026-05-05 20:58 -34.55230 -58.45867 4822 ft 266 kts 246°
2026-05-05 20:58 -34.56042 -58.47883 4953 ft 265 kts 246°
2026-05-05 20:59 -34.56840 -58.49900 4970 ft 265 kts 246°
2026-05-05 20:59 -34.57620 -58.51922 4970 ft 265 kts 247°
2026-05-05 20:59 -34.58392 -58.53954 4971 ft 265 kts 248°
2026-05-05 20:59 -34.59158 -58.55986 4971 ft 265 kts 248°
2026-05-05 21:00 -34.59919 -58.58018 4971 ft 265 kts 248°
2026-05-05 21:00 -34.60678 -58.60054 4971 ft 264 kts 248°
2026-05-05 21:00 -34.61512 -58.62040 4971 ft 266 kts 240°
2026-05-05 21:00 -34.62512 -58.63928 4969 ft 266 kts 239°
2026-05-05 21:01 -34.63511 -58.65818 4820 ft 265 kts 239°
2026-05-05 21:01 -34.64504 -58.67708 4396 ft 267 kts 240°
2026-05-05 21:01 -34.65501 -58.69610 3971 ft 268 kts 239°
2026-05-05 21:01 -34.66504 -58.71520 3579 ft 268 kts 239°
2026-05-05 21:02 -34.67520 -58.73374 3440 ft 258 kts 232°
2026-05-05 21:02 -34.68929 -58.74622 3315 ft 250 kts 201°
2026-05-05 21:02 -34.70609 -58.74844 3146 ft 241 kts 173°
2026-05-05 21:02 -34.72221 -58.74519 2945 ft 233 kts 168°
2026-05-05 21:03 -34.73717 -58.73913 2828 ft 222 kts 152°
2026-05-05 21:03 -34.74997 -58.72968 2700 ft 210 kts 139°
2026-05-05 21:03 -34.76016 -58.71782 2604 ft 196 kts 130°
2026-05-05 21:03 -34.76852 -58.70531 2479 ft 186 kts 126°
2026-05-05 21:04 -34.77620 -58.69309 2348 ft 178 kts 127°
2026-05-05 21:04 -34.78354 -58.68135 2221 ft 171 kts 126°
2026-05-05 21:04 -34.79062 -58.66998 2098 ft 166 kts 126°
2026-05-05 21:04 -34.79736 -58.65911 1978 ft 155 kts 125°
2026-05-05 21:05 -34.80295 -58.64834 1772 ft 150 kts 107°
2026-05-05 21:05 -34.80474 -58.63567 1449 ft 153 kts 96°
2026-05-05 21:05 -34.80617 -58.62312 1174 ft 145 kts 100°
2026-05-05 21:05 -34.80832 -58.61169 988 ft 135 kts 102°
2026-05-05 21:06 -34.81058 -58.60063 796 ft 135 kts 102°
2026-05-05 21:06 -34.81260 -58.58948 661 ft 135 kts 101°
2026-05-05 21:06 -34.81453 -58.57833 489 ft 135 kts 101°
2026-05-05 21:06 -34.81657 -58.56720 322 ft 135 kts 101°
2026-05-05 21:07 -34.81855 -58.55603 161 ft 135 kts 101°
2026-05-05 21:07 -34.82052 -58.54505 85 ft 123 kts 103°
2026-05-05 21:07 -34.82201 -58.53694 81 ft 72 kts 100°
2026-05-05 21:07 -34.82294 -58.53188 81 ft 51 kts 102°
2026-05-05 21:08 -34.82336 -58.52915 83 ft 12 kts 75°
2026-05-05 21:08 -34.82268 -58.52898 82 ft 13 kts 342°
2026-05-05 21:08 -34.82163 -58.52931 81 ft 18 kts 346°
2026-05-05 21:08 -34.82038 -58.52999 80 ft 21 kts 301°
2026-05-05 21:09 -34.82010 -58.53103 77 ft 9 kts 282°
2026-05-05 21:09 -34.81990 -58.53200 76 ft 15 kts 285°
2026-05-05 21:09 -34.81961 -58.53338 76 ft 16 kts 276°
2026-05-05 21:09 -34.81942 -58.53442 75 ft 13 kts 283°
2026-05-05 21:10 -34.81920 -58.53549 75 ft 15 kts 284°
2026-05-05 21:10 -34.81857 -58.53658 75 ft 18 kts 332°
2026-05-05 21:10 -34.81775 -58.53700 75 ft 13 kts 335°
2026-05-05 21:10 -34.81687 -58.53754 75 ft 15 kts 331°
2026-05-05 21:11 -34.81579 -58.53789 75 ft 17 kts 349°
2026-05-05 21:11 -34.81513 -58.53799 75 ft 7 kts 353°
2026-05-05 21:11 -34.81499 -58.53801 75 ft 0 kts 353°